Date String (YYYY-MM-DD hh:mm:ss) UTC,Instrument flags,Ambient pressure (hPa),Sample flow (lpm),Bypass flow (lpm),Sample temperature (°C),Ambient temperature (°C),ASC tube jacket temperature (°C),LED temperature (°C),Box temperature (°C),Sample RH (%),Span deviation,Mass concentration (μg/m³),Mass concentration (μg/m³),Mass concentration (μg/m³)
DateTimeUTC,F1_M11,P_M11,Q1_M11,Q2_M11,T1_M11,T2_M11,T3_M11,T4_M11,T5_M11,U1_M11,ZSPAN_M11,X0_M11,X2_M11,X1_M11
2022-03-29 18:00:00,,0810.6,5.00,0.00,27.3,26.5,00.0,36.2,29.1,19.0,0000.0,0013.93,0004.57,0003.44
2022-03-29 18:01:00,,0810.6,5.00,0.00,27.3,26.5,00.0,36.2,29.1,19.0,0000.0,0013.90,0004.56,0003.39
2022-03-29 18:02:00,,0810.6,5.00,0.00,27.3,26.5,00.0,36.2,29.1,19.1,0000.0,0013.30,0004.47,0003.31
2022-03-29 18:03:00,,0810.6,4.99,0.00,27.3,26.5,00.0,36.2,29.1,19.3,0000.0,0013.68,0004.38,0003.25
2022-03-29 18:04:00,,0810.6,5.01,0.00,27.3,26.5,00.0,36.2,29.2,19.5,0000.0,0012.98,0004.24,0003.16
2022-03-29 18:05:00,,0810.6,5.00,0.00,27.3,26.5,00.0,36.2,29.2,19.4,0000.0,0012.56,0004.10,0003.10
2022-03-29 18:06:00,,0810.6,5.02,0.00,27.3,26.5,00.0,36.2,29.2,19.4,0000.0,0012.67,0004.05,0003.06
2022-03-29 18:07:00,,0810.6,4.99,0.00,27.3,26.5,00.0,36.3,29.2,19.3,0000.0,0011.95,0004.00,0002.99
2022-03-29 18:08:00,,0810.6,5.01,0.00,27.3,26.5,00.0,36.3,29.2,19.8,0000.0,0011.95,0003.92,0002.92
2022-03-29 18:09:00,,0810.6,4.99,0.00,27.3,26.5,00.0,36.3,29.1,20.0,0000.0,0011.54,0003.79,0002.86
2022-03-29 18:10:00,,0810.6,5.00,0.00,27.3,26.5,00.0,36.3,29.1,19.8,0000.0,0010.42,0003.70,0002.81
2022-03-29 18:11:00,,0810.6,5.02,0.00,27.3,26.5,00.0,36.3,29.1,19.8,0000.0,0010.26,0003.66,0002.78
2022-03-29 18:12:00,,0810.6,4.99,0.00,27.3,26.5,00.0,36.3,29.1,20.2,0000.0,0010.04,0003.56,0002.74
2022-03-29 18:13:00,,0810.6,4.99,0.00,27.3,26.5,00.0,36.3,29.1,20.1,0000.0,0009.94,0003.49,0002.70
2022-03-29 18:14:00,,0810.6,5.02,0.00,27.3,26.5,00.0,36.3,29.1,19.8,0000.0,0008.91,0003.41,0002.63
2022-03-29 18:15:00,,0810.6,4.99,0.00,27.3,26.4,00.0,36.3,29.1,19.7,0000.0,0008.53,0003.35,0002.55
2022-03-29 18:16:00,,0810.6,5.00,0.00,27.3,26.4,00.0,36.3,29.1,19.9,0000.0,0008.47,0003.27,0002.46
2022-03-29 18:17:00,,0810.6,5.01,0.00,27.3,26.4,00.0,36.3,29.1,20.2,0000.0,0008.15,0003.22,0002.39
2022-03-29 18:18:00,,0810.6,5.00,0.00,27.3,26.4,00.0,36.3,29.1,20.4,0000.0,0007.79,0003.19,0002.35
2022-03-29 18:19:00,,0810.6,4.99,0.00,27.3,26.4,00.0,36.3,29.1,20.4,0000.0,0007.47,0003.19,0002.33
2022-03-29 18:20:00,,0810.6,4.99,0.00,27.3,26.4,00.0,36.3,29.1,20.7,0000.0,0006.56,0003.20,0002.33
2022-03-29 18:21:00,,0810.6,5.01,0.00,27.3,26.4,00.0,36.3,29.1,20.8,0000.0,0006.35,0003.21,0002.32
2022-03-29 18:22:00,,0810.6,4.99,0.00,27.3,26.4,00.0,36.3,29.1,20.5,0000.0,0005.92,0003.13,0002.22
2022-03-29 18:23:00,,0810.6,5.00,0.00,27.3,26.5,00.0,36.3,29.2,21.1,0000.0,0005.75,0003.13,0002.12
2022-03-29 18:24:00,,0810.6,5.00,0.00,27.3,26.5,00.0,36.3,29.2,21.1,0000.0,0005.61,0003.11,0002.04
2022-03-29 18:25:00,,0810.6,4.99,0.00,27.3,26.5,00.0,36.3,29.2,21.0,0000.0,0005.48,0003.04,0001.97
2022-03-29 18:26:00,,0810.6,5.01,0.00,27.3,26.5,00.0,36.3,29.2,21.3,0000.0,0005.39,0002.99,0001.93
2022-03-29 18:27:00,,0810.6,4.99,0.00,27.4,26.5,00.0,36.3,29.2,21.4,0000.0,0005.27,0002.95,0001.89
2022-03-29 18:28:00,,0810.6,5.01,0.00,27.3,26.5,00.0,36.3,29.2,21.5,0000.0,0005.14,0002.91,0001.87
2022-03-29 18:29:00,,0810.6,5.00,0.00,27.3,26.5,00.0,36.3,29.2,21.4,0000.0,0005.46,0002.92,0001.83
2022-03-29 18:30:00,,0810.6,5.00,0.00,27.3,26.5,00.0,36.3,29.1,21.2,0000.0,0006.44,0002.90,0001.80
2022-03-29 18:31:00,,0810.6,5.01,0.00,27.3,26.5,00.0,36.3,29.1,20.9,0000.0,0006.37,0002.80,0001.73
2022-03-29 18:32:00,,0810.6,4.99,0.00,27.3,26.5,00.0,36.3,29.1,21.0,0000.0,0006.45,0002.75,0001.68
2022-03-29 18:33:00,,0810.6,5.00,0.00,27.3,26.5,00.0,36.3,29.1,21.3,0000.0,0006.58,0002.72,0001.69
2022-03-29 18:34:00,,0810.6,5.01,0.00,27.3,26.4,00.0,36.3,29.1,21.4,0000.0,0006.48,0002.71,0001.72
2022-03-29 18:35:00,,0810.6,4.99,0.00,27.3,26.4,00.0,36.3,29.1,21.4,0000.0,0006.48,0002.68,0001.75
2022-03-29 18:36:00,,0810.6,5.00,0.00,27.3,26.5,00.0,36.3,29.1,21.6,0000.0,0006.46,0002.66,0001.76
2022-03-29 18:37:00,,0810.6,5.00,0.00,27.3,26.5,00.0,36.3,29.1,21.8,0000.0,0006.53,0002.71,0001.81
2022-03-29 18:38:00,,0810.6,4.99,0.00,27.3,26.5,00.0,36.3,29.1,22.1,0000.0,0007.04,0002.84,0001.85
2022-03-29 18:39:00,,0810.6,5.01,0.00,27.3,26.5,00.0,36.3,29.0,21.7,0000.0,0007.27,0002.90,0001.87
2022-03-29 18:40:00,,0810.6,4.99,0.00,27.3,26.4,00.0,36.3,29.1,21.6,0000.0,0007.19,0002.91,0001.89
2022-03-29 18:41:00,,0810.6,5.02,0.00,27.3,26.4,00.0,36.3,29.1,21.9,0000.0,0006.55,0002.90,0001.90
2022-03-29 18:42:00,,0810.6,4.99,0.00,27.3,26.4,00.0,36.3,29.1,22.0,0000.0,0006.81,0002.97,0001.91
2022-03-29 18:43:00,,0810.6,5.00,0.00,27.3,26.4,00.0,36.3,29.1,21.8,0000.0,0006.95,0003.01,0001.92
2022-03-29 18:44:00,,0810.6,5.01,0.00,27.3,26.4,00.0,36.3,29.0,21.9,0000.0,0006.69,0003.01,0001.91
2022-03-29 18:45:00,,0810.6,4.99,0.00,27.3,26.4,00.0,36.3,29.0,21.9,0000.0,0006.97,0003.08,0001.91
2022-03-29 18:46:00,,0810.6,5.01,0.00,27.3,26.4,00.0,36.3,29.1,22.0,0000.0,0007.16,0003.15,0001.94
2022-03-29 18:47:00,,0810.6,5.00,0.00,27.3,26.4,00.0,36.3,29.1,22.5,0000.0,0007.46,0003.16,0001.94
2022-03-29 18:48:00,,0810.6,5.01,0.00,27.3,26.4,00.0,36.3,29.1,22.3,0000.0,0007.76,0003.14,0001.95
2022-03-29 18:49:00,,0810.6,4.99,0.00,27.3,26.4,00.0,36.3,29.1,22.3,0000.0,0007.54,0003.09,0001.96
2022-03-29 18:50:00,,0810.6,5.01,0.00,27.3,26.4,00.0,36.3,29.1,21.9,0000.0,0007.20,0003.03,0001.97
2022-03-29 18:51:00,,0810.6,5.01,0.00,27.3,26.4,00.0,36.3,29.1,21.6,0000.0,0007.19,0003.07,0002.00
2022-03-29 18:52:00,,0810.5,4.99,0.00,27.3,26.4,00.0,36.3,29.1,21.5,0000.0,0007.30,0003.12,0002.04
2022-03-29 18:53:00,,0810.6,5.02,0.00,27.3,26.4,00.0,36.3,29.1,21.5,0000.0,0006.66,0003.12,0002.04
2022-03-29 18:54:00,,0810.5,4.99,0.00,27.3,26.5,00.0,36.3,29.1,21.3,0000.0,0006.37,0003.07,0002.04
2022-03-29 18:55:00,,0810.6,5.01,0.00,27.3,26.5,00.0,36.3,29.1,21.3,0000.0,0006.44,0003.08,0002.04
2022-03-29 18:56:00,,0810.6,5.00,0.00,27.3,26.5,00.0,36.3,29.2,21.4,0000.0,0006.20,0003.08,0002.05
2022-03-29 18:57:00,,0810.5,4.99,0.00,27.3,26.5,00.0,36.3,29.2,21.5,0000.0,0006.00,0003.01,0002.04
2022-03-29 18:58:00,,0810.6,5.01,0.00,27.3,26.5,00.0,36.3,29.2,21.7,0000.0,0005.66,0003.03,0002.05
2022-03-29 18:59:00,,0810.6,4.98,0.00,27.4,26.5,00.0,36.3,29.2,21.4,0000.0,0005.33,0003.09,0002.05
